Location: Clyde
(45.1830°S, 169.3170°E)
Time: 06:38:30
(UTC+12:00)

CENTAUR R/B - Pass Details

Date: 14 May 2021
Orbit: 740 x 1447 km, 63.4° (Epoch: 18 June)

Event Time Altitude Azimuth Distance (km) Brightness Sun altitude
Rises 17:55:49 0° 306° (NW) 4,361 7.7 -5.9°
Reaches altitude 10° 17:58:56 10° 301° (WNW) 3,310 6.9 -6.4°
Maximum altitude 18:06:43 53° 225° (SW) 1,400 3.5 -7.7°
Drops below altitude 10° 18:13:20 10° 148° (SSE) 2,824 4.5 -8.8°
Enters shadow 18:14:56 - 144° (SE) 3,373 4.8 -9.0°
